TimePDT,TemperatureF,Dew PointF,Humidity,Sea Level PressureIn,VisibilityMPH,Wind Direction,Wind SpeedMPH,Gust SpeedMPH,PrecipitationIn,Events,Conditions,WindDirDegrees,DateUTC
12:52 AM,80.1,46.0,30,29.72,10.0,South,8.1,-,N/A,,Clear,170,2013-09-25 07:52:00
1:52 AM,77.0,52.0,42,29.70,10.0,South,9.2,-,N/A,,Clear,180,2013-09-25 08:52:00
2:52 AM,75.9,52.0,43,29.69,10.0,South,17.3,-,N/A,,Clear,190,2013-09-25 09:52:00
3:52 AM,75.0,51.1,43,29.68,10.0,South,5.8,-,N/A,,Clear,190,2013-09-25 10:52:00
4:52 AM,73.9,48.0,40,29.67,10.0,South,10.4,-,N/A,,Clear,180,2013-09-25 11:52:00
5:52 AM,73.0,53.1,49,29.66,10.0,South,12.7,-,N/A,,Clear,170,2013-09-25 12:52:00
6:52 AM,71.1,51.1,49,29.68,10.0,South,9.2,-,N/A,,Clear,180,2013-09-25 13:52:00
7:52 AM,75.0,54.0,48,29.69,10.0,South,13.8,-,N/A,,Clear,190,2013-09-25 14:52:00
8:52 AM,80.1,48.9,34,29.68,10.0,South,13.8,-,N/A,,Clear,180,2013-09-25 15:52:00
9:52 AM,87.1,36.0,16,29.68,10.0,SW,15.0,-,N/A,,Clear,220,2013-09-25 16:52:00
10:52 AM,90.0,33.1,13,29.66,10.0,SW,15.0,-,N/A,,Clear,220,2013-09-25 17:52:00
11:52 AM,91.9,33.1,12,29.64,9.0,SW,20.7,29.9,N/A,,Clear,220,2013-09-25 18:52:00
12:52 PM,93.9,32.0,11,29.61,10.0,SW,21.9,29.9,N/A,,Clear,220,2013-09-25 19:52:00
1:52 PM,97.0,32.0,10,29.58,10.0,WSW,21.9,26.5,N/A,,Clear,240,2013-09-25 20:52:00
2:52 PM,98.1,33.1,10,29.55,10.0,SW,20.7,34.5,N/A,,Clear,220,2013-09-25 21:52:00
3:52 PM,97.0,32.0,10,29.53,9.0,SSW,21.9,33.4,N/A,,Clear,210,2013-09-25 22:52:00
4:52 PM,95.0,34.0,12,29.52,10.0,SW,25.3,29.9,N/A,,Clear,230,2013-09-25 23:52:00
5:52 PM,93.0,37.0,14,29.52,9.0,SW,16.1,25.3,N/A,,Partly Cloudy,230,2013-09-26 00:52:00
6:52 PM,89.1,35.1,15,29.52,7.0,SW,17.3,23.0,N/A,,Overcast,220,2013-09-26 01:52:00
7:52 PM,84.9,30.0,14,29.54,6.0,SW,17.3,-,N/A,,Haze,230,2013-09-26 02:52:00
8:52 PM,82.0,30.0,15,29.54,8.0,SW,16.1,-,N/A,,Clear,220,2013-09-26 03:52:00
9:52 PM,80.1,30.9,17,29.55,9.0,SW,18.4,25.3,N/A,,Clear,220,2013-09-26 04:52:00
10:52 PM,79.0,26.1,14,29.55,9.0,SSW,19.6,28.8,N/A,,Clear,210,2013-09-26 05:52:00
11:52 PM,78.1,24.1,14,29.56,10.0,SSW,13.8,-,N/A,,Clear,210,2013-09-26 06:52:00